Bodensee (Kressbronn): 6,7°C  -  Teich der Wetterzentrale Bad Schussenried: 5,6°C |  Schneehöhe Kreuzthal-Steinberg (930 m ü. NN): 8 cm   
01.04.2020Höhe
ü. NN
ZeitTemperatur (°C)Nieder-
schlag
Luft-
feuchte
Luft-
druck
Wind
StationaktuellMinimumMaximumaktuellMaximum
Aldingen654 m06:21-4,7-4,7 (07:35)-0,3 (16:02)0,0 l/m²79%1023,51,9 km/h (1 Bft) W29,6 km/h (5 Bft) W (14:48)
Allmendingen541 m06:20-6,2-6,3 (07:35)-2,1 (15:10)0,0 l/m²88%1023,30,0 km/h (0 Bft) NO35,4 km/h (5 Bft) O (15:35)
Altshausen574 m06:20-3,7-3,9 (05:14)-1,1 (00:16)0,0 l/m²67%1020,89,7 km/h (2 Bft) N-NW11,3 km/h (2 Bft) N (06:10)
Amstetten-Reutti663 m06:20-4,6-4,7 (06:15)-1,5 (16:55)0,0 l/m²86%1022,94,8 km/h (1 Bft) N48,3 km/h (6 Bft) W (15:55)
Amtzell-Grenis677 m06:20-3,6-4,1 (06:05)-1,4 (00:00)0,0 l/m²63%1022,86,4 km/h (2 Bft) W-SW6,4 km/h (2 Bft) W-SW (00:00)
Aulendorf570 m06:20-3,0-3,0 (06:19)-0,5 (00:00)0,0 l/m²72%1021,79,7 km/h (2 Bft) N-NO14,5 km/h (3 Bft) O-NO (05:13)
Bad Krozingen233 m06:20-2,2-2,2 (06:20)3,7 (16:05)0,0 l/m²77%1023,33,5 km/h (1 Bft) S-SO38,1 km/h (5 Bft) N (17:05)
Bad Saulgau595 m06:20-5,0-5,0 (07:00)-1,9 (15:00)0,0 l/m²87%1021,50,0 km/h (0 Bft) S-SO25,7 km/h (4 Bft) S (11:35)
Bad Saulgau, Mannsgrab588 m06:23-4,7-6,1 (05:34)-1,7 (00:17)0,0 l/m²87%1024,00,0 km/h (0 Bft) N-NO0,0 km/h (0 Bft) N (00:00)
Bad Saulgau-Lampertsweiler627 m06:20-4,8-4,8 (06:15)0,2 (00:00)0,0 l/m²82%1024,69,7 km/h (2 Bft) N-NW22,5 km/h (4 Bft) N-NW (01:15)
Bad Schussenried572 m06:20-4,0-4,0 (06:10)-1,1 (00:00)0,0 l/m²87%1021,10,0 km/h (0 Bft) NO9,7 km/h (2 Bft) NO (03:15)
Bergatreute615 m01:45-0,7-0,7 (00:45)0,0 (00:00)0,0 l/m²77%1023,512,9 km/h (3 Bft) NO16,1 km/h (3 Bft) O-NO (01:40)
Biberach (Riss), Boehringer533 m06:30-4,3-4,4 (06:30)-1,1 (00:30)0,0 l/m²89%1021,94,3 km/h (1 Bft) N11,9 km/h (3 Bft) N (03:00)
Biberach (Riss), Realschule553 m06:25-3,9-3,9 (06:05)-0,3 (00:00)0,0 l/m²87%1023,612,9 km/h (3 Bft) N12,9 km/h (3 Bft) N (06:05)
Burgrieden523 m06:20-4,0-4,0 (06:20)-0,4 (00:00)0,0 l/m²82%1022,80,0 km/h (0 Bft) NO4,8 km/h (1 Bft) O-NO (02:50)
Burgrieden-Hochstetten510 m06:20-4,6-4,6 (07:00)-0,9 (15:40)0,0 l/m²89%1023,23,2 km/h (1 Bft) N-NO25,7 km/h (4 Bft) NO (12:55)
Ebersbach579 m06:20-3,7-3,8 (05:55)-0,1 (00:00)0,0 l/m²86%1023,28,0 km/h (2 Bft) N-NW16,1 km/h (3 Bft) NO (01:25)
Ebersbach-Boos605 m06:20-4,1-4,2 (05:55)-0,1 (00:00)0,0 l/m²88%1022,917,7 km/h (3 Bft) NO22,5 km/h (4 Bft) O (01:00)
Ebersbach-Menzenweiler661 m06:20-3,9-3,9 (06:20)-0,6 (00:00)0,0 l/m²88%1022,819,3 km/h (3 Bft) NO24,1 km/h (4 Bft) O-NO (01:05)
Ehingen535 m01:10-2,5-2,5 (01:10)-1,3 (00:05)0,0 l/m²70%1025,40,0 km/h (0 Bft) N-NO5,0 km/h (1 Bft) N-NO (00:15)
Erlenmoos645 m06:20-3,3-3,3 (06:15)-0,9 (00:00)0,0 l/m²86%1022,74,8 km/h (1 Bft) NO12,9 km/h (3 Bft) O-NO (01:35)
Ertingen569 m06:20-3,4-3,4 (06:00)-0,6 (00:00)0,0 l/m²84%1022,84,8 km/h (1 Bft) N16,1 km/h (3 Bft) N-NO (04:10)
Friedrichshafen405 m06:20-1,7-1,7 (07:00)0,9 (13:30)0,0 l/m²78%1022,59,7 km/h (2 Bft) O-NO27,4 km/h (4 Bft) NO (15:10)
Günzburg443 m06:20-4,7-4,8 (06:05)-1,1 (00:00)0,0 l/m²88%1020,80,0 km/h (0 Bft) NO0,0 km/h (0 Bft) NO (00:00)
Hochdorf-Appendorf537 m06:20-5,1-5,8 (06:05)-1,7 (00:15)0,0 l/m²66%1022,68,0 km/h (2 Bft) N14,5 km/h (3 Bft) N-NW (03:20)
Höchsten802 m06:20-3,8-3,8 (06:20)-1,4 (00:00)0,0 l/m²80%1020,419,3 km/h (3 Bft) O25,7 km/h (4 Bft) NO (02:45)
Horgenzell618 m06:20-1,9-1,9 (03:45)-0,6 (00:05)0,0 l/m²76%1020,14,8 km/h (1 Bft) N-NO19,3 km/h (3 Bft) N-NO (00:50)
Hoßkirch632 m06:20-6,6-6,6 (06:20)-1,0 (00:15)0,0 l/m²87%1021,64,8 km/h (1 Bft) O14,5 km/h (3 Bft) O-NO (00:20)
Isny, Am Dreifingerbach695 m06:20-5,8-5,8 (06:20)0,1 (01:00)0,0 l/m²81%1021,34,8 km/h (1 Bft) W14,5 km/h (3 Bft) O-NO (01:05)
Isny, Weidachweg706 m06:20-4,3-4,3 (06:20)0,3 (00:25)0,0 l/m²76%1023,70,0 km/h (0 Bft) W12,9 km/h (3 Bft) W (00:10)
Kappel-Grafenhausen163 m06:15-1,4-1,4 (07:00)3,3 (14:55)0,0 l/m²77%1021,10,0 km/h (0 Bft) N30,6 km/h (5 Bft) N-NO (16:55)
Kißlegg-Staibshof709 m06:20-3,3-3,3 (06:20)-0,9 (00:00)0,0 l/m²82%1022,46,4 km/h (2 Bft) NO14,5 km/h (3 Bft) O (01:50)
Kressbronn398 m06:24-2,2-2,2 (06:22)1,4 (00:00)0,0 l/m²75%1021,20,0 km/h (0 Bft) NO22,5 km/h (4 Bft) NO (00:54)
Kreuzthal-Steinberg-Alpe930 m06:20-4,5-4,8 (04:00)-2,5 (00:00)0,0 l/m²88%1022,02,2 km/h (1 Bft) W-SW22,0 km/h (4 Bft) W-NW (00:10)
Kreuzthal-Steinberggipfel1040 m06:20-3,6-4,0 (02:20)-3,1 (00:10)-74%1022,013,3 km/h (3 Bft) O37,1 km/h (5 Bft) O-SO (00:10)
Kristberg im Montafon (AT)1425 m06:20-6,4-6,6 (04:51)-5,3 (00:40)0,0 l/m²61%1026,30,0 km/h (0 Bft) N-NO10,1 km/h (2 Bft) NO (01:47)
Laupheim500 m06:20-3,8-3,8 (06:15)0,0 (00:00)0,0 l/m²82%1022,20,0 km/h (0 Bft) NO9,7 km/h (2 Bft) O-SO (00:20)
Leutkirch-Heggelbach670 m06:20-4,7-4,7 (06:20)-2,6 (00:30)0,0 l/m²87%1021,54,8 km/h (1 Bft) N8,0 km/h (2 Bft) N-NO (03:30)
Lindau-Insel420 m06:20-1,2-1,2 (07:25)1,8 (14:55)0,0 l/m²73%1021,60,0 km/h (0 Bft) O-NO29,0 km/h (5 Bft) NO (17:05)
Lindau-Stadt412 m06:20-2,1-2,1 (07:25)1,2 (14:55)0,0 l/m²75%1021,81,6 km/h (1 Bft) NO33,8 km/h (5 Bft) N-NO (15:40)
Maierhöfen im Allgäu733 m06:20-3,7-3,7 (06:10)-1,2 (01:35)0,0 l/m²76%1021,94,8 km/h (1 Bft) N-NW25,7 km/h (4 Bft) O-SO (02:05)
Maselheim543 m06:20-5,0-5,0 (07:25)-2,3 (13:20)0,0 l/m²86%1023,10,0 km/h (0 Bft) N-NW24,1 km/h (4 Bft) O-NO (15:20)
Maselheim-Sulmingen548 m06:20-5,0-5,0 (07:05)-2,2 (15:15)0,0 l/m²89%1024,34,8 km/h (1 Bft) NW20,9 km/h (4 Bft) N-NO (12:15)
Mietingen-Baltringen528 m06:20-4,7-4,7 (05:40)-1,3 (00:45)0,0 l/m²86%1024,70,0 km/h (0 Bft) O-NO4,8 km/h (1 Bft) N-NO (01:20)
Mindelheim-Apfeltrach620 m06:21-5,7-5,7 (06:17)-2,7 (00:00)0,0 l/m²87%1024,00,0 km/h (0 Bft) NO0,0 km/h (0 Bft) O-NO (00:00)
Mittelbiberach577 m06:21-4,3-4,4 (06:08)-1,0 (00:16)0,0 l/m²84%1024,04,8 km/h (1 Bft) NO12,8 km/h (3 Bft) NO (05:56)
Neresheim552 m06:01-6,8-6,8 (06:01)-2,0 (00:00)0,0 l/m²89%1021,70,0 km/h (0 Bft) O4,0 km/h (1 Bft) NO (01:00)
Neukirch570 m06:20-3,1-3,1 (07:05)-0,9 (14:35)0,0 l/m²81%1022,18,0 km/h (2 Bft) N37,0 km/h (5 Bft) N-NO (11:55)
Ochsenhausen, Birkenstraße613 m06:20-5,3-5,3 (07:10)-2,2 (12:50)0,0 l/m²81%1023,21,6 km/h (1 Bft) NO3,2 km/h (1 Bft) S-SW (07:05)
Ochsenhausen, Unt. Wiesen575 m06:20-5,6-5,7 (06:15)-2,4 (00:00)0,0 l/m²89%1024,40,0 km/h (0 Bft) NO4,8 km/h (1 Bft) NO (00:00)
Opfenbach-Göritz561 m06:21-4,2-5,2 (05:22)-2,8 (00:00)0,0 l/m²74%1020,10,0 km/h (0 Bft) N-NO6,5 km/h (2 Bft) O-NO (00:18)
Ostrach619 m06:20-3,8-3,8 (04:15)-0,6 (00:00)0,0 l/m²88%1021,14,8 km/h (1 Bft) NW8,0 km/h (2 Bft) N-NW (04:40)
Ravensburg, Goethestraße428 m06:20-1,8-1,8 (06:20)1,3 (00:00)0,0 l/m²80%1021,816,1 km/h (3 Bft) NO16,1 km/h (3 Bft) O-NO (06:15)
Ravensburg-Wernsreute511 m06:20-3,1-3,1 (06:20)0,0 (15:50)0,0 l/m²82%1024,516,1 km/h (3 Bft) N-NO35,4 km/h (5 Bft) N-NO (11:45)
Reichenbach an der Fils343 m06:20-2,1-2,1 (06:20)1,0 (00:00)0,0 l/m²77%1025,51,6 km/h (1 Bft) SO12,9 km/h (3 Bft) O-SO (05:10)
Riedlingen530 m06:20-3,3-3,3 (06:20)-1,0 (00:00)0,0 l/m²82%1023,00,0 km/h (0 Bft) O-NO0,0 km/h (0 Bft) N (00:00)
Rißtissen489 m06:20-3,1-3,1 (06:15)-0,2 (00:00)0,0 l/m²85%1020,60,0 km/h (0 Bft) O-NO8,0 km/h (2 Bft) O-NO (03:30)
Rottweil-Hausen681 m06:23-4,2-4,4 (05:57)-1,9 (00:00)0,0 l/m²82%1023,94,7 km/h (1 Bft) N-NW6,5 km/h (2 Bft) N (02:14)
Schemmerhofen520 m06:202,72,7 (00:00)2,7 (00:00)0,0 l/m²55%1021,70,0 km/h (0 Bft) NO0,0 km/h (0 Bft) NO (00:00)
Silbertal im Montafon (AT)884 m06:20-4,4-4,4 (06:14)-1,6 (00:01)0,0 l/m²85%1026,00,0 km/h (0 Bft) O-NO0,0 km/h (0 Bft) O-NO (00:00)
Tettnang466 m06:24-1,5-1,5 (06:21)1,0 (00:00)0,0 l/m²72%1021,74,7 km/h (1 Bft) O-NO16,2 km/h (3 Bft) O-SO (01:07)
Tuttlingen648 m06:16-4,1-4,3 (05:41)-2,1 (00:01)0,0 l/m²76%1023,50,0 km/h (0 Bft) N-NO5,2 km/h (1 Bft) W-SW (03:26)
Tuttlingen, Möhringer-Vorstadt711 m06:20-4,2-4,5 (07:10)-2,4 (16:05)0,0 l/m²82%1022,60,0 km/h (0 Bft) NO25,7 km/h (4 Bft) N-NW (12:35)
Ummendorf547 m06:20-4,4-4,5 (06:10)-0,7 (00:10)0,0 l/m²69%1023,80,0 km/h (0 Bft) O-NO16,1 km/h (3 Bft) O (01:05)
Ummendorf-Fischbach558 m06:20-5,3-5,4 (06:15)-1,9 (01:25)0,0 l/m²70%1023,60,0 km/h (0 Bft) O4,8 km/h (1 Bft) O (04:20)
Waldburg707 m06:20-3,2-3,2 (06:15)-0,8 (00:00)0,0 l/m²80%1021,49,7 km/h (2 Bft) N19,3 km/h (3 Bft) N (02:35)
Waltenhofen im Allgäu720 m06:20-7,3-7,3 (06:15)-2,2 (01:05)0,0 l/m²90%1022,50,0 km/h (0 Bft) W17,7 km/h (3 Bft) W (11:50)
Wangen, Südring548 m06:20-4,0-4,0 (06:18)-0,3 (00:00)0,0 l/m²84%1021,64,7 km/h (1 Bft) O-NO13,0 km/h (3 Bft) NO (01:25)
Warthausen-Birkenhard581 m06:24-4,3-4,3 (05:35)-1,2 (00:00)0,0 l/m²86%1023,411,9 km/h (3 Bft) N13,7 km/h (3 Bft) NO (06:13)
Winterlingen785 m06:15-5,6-5,6 (06:15)-2,8 (01:00)0,0 l/m²84%1022,51,1 km/h (1 Bft) N3,6 km/h (1 Bft) NO (00:55)

niederschlagsdatenbank | info | login - erfassung

Sollten Sie Interesse haben, an der Niederschlagsdatenbank teilzunehmen, finden Sie > hier < weitere Informationen.
Datum: . . Kalender
Anmerkung:0,0 = nicht messbarer Niederschlag
 -  = kein Niederschlag
 k  = kumulierter Niederschlag

< 15.03.201917.03.2019 >


Niederschlagswerte vom 16.03.2019    -    derzeit 112 Stationen

Die Niederschlagswerte des gewählten Tages lassen sich durch Klicken auf das Datum sortieren.
Die Angaben sind in l/m².

Station13.03.14.03.15.03.16.03.17.03.18.03.19.03.Bemerkung 16.03.
Aichstetten Ulmenstraße 7-------
Aichstetten-Nestbaum Nestbaum-------
Albbruck Furmisstr. 186,028,318,0-2,81,3-
Vormittag leicht bewölkt, danach Sonne pur +15°C Nachts -2°C Am M [weiterlesen...]
Allmendingen Querqueviller Ring 62,89,517,0-0,8--
Amstetten-Reutti Gassenäcker 132,611,822,60,21,81,6-
Regen
Aulendorf Steinenbacher Weg 335,05,25,5-4,73,7-
Aulendorf-Blönried Heuweg 323,08,36,2-6,12,9-
Bad Bellingen Rheinstraße 76-------
Bad Buchau Hanfweiher 112,07,07,0-9,02,0-
Bad Saulgau Walserweg8,09,04,0-1,52,5-
Bad Saulgau-Hochberg Lampertsweiler Straße 127,08,04,6-3,53,00,0
Bad Schussenried Konradstraße12,08,38,9-5,53,20,0
Regen Nieselregen
Bad Schussenried Lortzingstrasse12,09,07,5-6,04,0-
Bad Schussenried Klosterstraße12,09,08,4-6,02,0-
Bad Schussenried Theodor-Storm-Strasse------39,5
Bad Schussenried-Hopferbach Unterer Öschweg 16/112,011,010,0-6,04,2-
Bad Schussenried-Lufthütte Hauptgasse 1711,09,08,00,04,05,0-
Bad Schussenried-Sattenbeuren Ortsstraße 7-------
Bad Schussenried-Schwaigfurt Schwaigfurt 29,511,08,5-5,84,0-
Bad Waldsee-Haisterkirch Zur Spitzenkapelle 18,512,011,5-5,52,70,0
+7,5/+15°C, während des Vormittags auflockernd, nachmittags sonnig b [weiterlesen...]
Bad Wurzach-Seibranz Kimpflerhof 2 3,310,519,5-7,03,0-
Baienfurt Untere Bergstrasse 73,018,07,0-7,0--
Balzheim Hinterm Liess 193,04,517,0-4,00,5-
Berg-Kleintobel Kleintobel6,215,919,5-10,0--
Biberach Amriswilstrasse9,06,912,8-6,31,8-
Biberach Strölinweg9,510,011,0-6,51,5-
Biberach Erlenweg9,56,012,0-6,0--
Biberach Neue Heimat 59,05,013,0-5,52,2-
Biberach Mittelbergstraße 99,06,012,0-5,52,0-
Biberach Auf dem Lindele-------
Biberach-Bergerhausen Löcherstr.18,57,014,5-4,0-2,0
Bierstetten Schloßbühl 610,55,06,0-5,4--
Blaubeuren-Pappelau Sotzenhauserstr.7---33,0 k---
Regen Nieselregen Schneeregen Schnee
Bühlertal Wolfinstraße 169,514,030,0-5,04,0-
Dettingen a. d. Iller Schleifweg 4-------
Dornstadt-Tomerdingen Maienweg 92,011,023,0-1,30,8-
Dürnau Dorfäckerweg 59,55,06,0-6,51,00,0
Eberhardzell Lilienweg9,05,310,9-5,12,40,0
Ebersbach-Roßwälden Appenwiesen2,85,512,0-1,41,40,0
Morgens noch bewölkt, ab dem spät Nachmittag sonnig 8,8 bis 12,8 [weiterlesen...]
Ehingen Rosenstraße3,07,017,5-0,30,60,0
Ehingen Zanderstraße3,07,1-----
Ehingen Schlaufenbühl3,36,915,0-1,20,0-
Ehingen Schillerstraße3,37,819,0-1,00,0-
Ehingen-Herbertshofen Tobelweg 9-------
Eislingen Albstraße 1253,16,026,7-5,41,3-
Regen Nieselregen
Erbach-Bach Hauptstraße 243,07,014,5----
Erlenmoos Haldenweg 159,37,916,2-7,42,20,1
Füramoos Hungersberg 12,111,016,50,00,75,50,0
Gutenzell Kleinser Berg 17,05,014,0-4,51,5-
Gutenzell-Hürbel Bei der Sägmühle 18,06,013,0-4,52,0-
Herbertingen Drosselweg-19,56,5-3,51,00,0
Ab Mittag viel Sonne bei Temperaturen um die 8 Grad plus. Nur der kalt [weiterlesen...]
Herbertingen Hirschstrasse11,09,04,0-4,0--
Hochdorf-Schweinhausen Lindenweg 28,87,811,6--10,5-
Hohentengen-Bremen Bremer Halde 45,014,06,0-4,01,0-
Horgenzell-Ringgenweiler Ringgenweiler 6204,28,45,8-6,12,30,7
Hüttisheim Ulmer Weg 22,04,518,5-1,00,5-
Illerkirchberg Mahdauweg 202,79,125,0-0,60,50,0
Illerrieden-Wangen Am Muckenberg 122,55,022,0-3,0--
Immenstaad Stockwiesen 10-------
Inzigkofen Butzenweg 110,010,56,1-3,31,2-
Isny Am Dreifingerbach 394,015,427,80,214,41,8-
Tau
Kirchberg Rosenstr. 76,05,118,0-6,50,0-
Kreuzthal-Steinberg-Alpe Im Kreuzbachthal 859,022,427,1-18,64,20,0
Schneehöhe: 36 cm
Langenau Wasserstr. 54-13,013,023,02,02,51,5-
Langenenslingen Schattenweiler Str. 1812,110,19,00,01,01,00,0
Regen Schneeregen
Leutkirch Unterer Auenweg 255,010,519,80,07,80,60,0
Leutkirch Nachtigallenweg 285,011,021,0-8,02,0-
Leutkirch-Adrazhofen Bergstraße 205,511,020,01,09,02,5-
Merklingen Millergasse 9-------
Mietingen Seerosenweg 10-------
Mietingen-Walpertshofen Bussenweg 313,05,03,0----
Mittelbiberach-Reute Rindenmooser Straße 210,36,4--9,02,0-
Moosburg Käserweg 513,06,57,9-4,11,10,0
Im weiteren Tagesverlauf sonniger, etwas milder als zuletzt. Nach wie [weiterlesen...]
Münsingen-Rietheim In der Lise 204,07,015,80,23,01,00,2
Regen
Neresheim Alfred-Delp-Straße 82,216,611,40,31,30,0-
Regen
Oberdischingen Normannenstraße 7--35,5----
Ochsenhausen Ehrensberger Weg 56,55,014,5-9,01,3-
Öpfingen Hauptstraße 992,55,818,50,10,10,5-
Regen
Ostrach Uhlandweg4,012,07,0-4,01,0-
Pfaffenhofen-Kadeltshofen Mühlbachstraße 41,08,019,00,01,01,0-
Pfullendorf Am Schweizersbild 2,3---1,2--
Rangendingen Donaustraße 1915,014,07,0-1,0--
Ravensburg Bleicherstraße5,217,0-----
Ravensburg-Schmalegg St.-Magdalena-Ring 425,019,213,2-10,01,5-
Ravensburg-Wernsreute Wernsreute 252,214,418,8-7,41,0-
Ravensburg-Weststadt Karl-Erb-Ring 1424,014,516,0-9,50,9-
Regensburg Orleansstraße 3-------
Riedhausen Blütenweg 132,212,64,0-3,83,40,2
Temp. +6,4°C / +14,8°C, Windböen W-SW 40,2 km/h
Riedlingen Berliner Str. 4110,09,29,5-2,01,0-
Riedlingen-Neufra Panoramaweg-------
Riedlingen-Neufra Riedlinger Strasse10,57,87,20,20,81,80,0
+ 3,0 Grad, trocken, leicht bewölkt, die Sonne kommt
Schelklingen-Gundershofen Schwarzer-Straße 145,010,017,0-1,51,0-
Temp. zw. +7,2°C und +21,1°C. Morgens noch trüb. Mittags Sonne und [weiterlesen...]
Schemmerberg Drosselweg 96,05,515,5-3,01,0-
Schwörstadt Schulstrasse 197,014,84,8-2,21,0-
Seekirch Haldenberg 7-------
Sigmaringendorf Weingartenstraße 79,811,16,2-3,6--
Tuttlingen Möhringerstraße 117,216,811,5-2,8--
Ulm Eberhardtstraße 75-0,68,019,00,00,21,0
Regen
Ummendorf Tulpenweg9,38,014,0-12,01,5-
Ummendorf Friedrich-Schiller-Str.-------
Uttenweiler-Ahlen Seekircher Straße 88,5-9,5-2,01,0-
Vöhringen (Schwarzwald) Drosselweg 317,020,021,0-6,0--
Waldburg Kastanienweg11--39,5-7,0--
Wangen-Bergerhöhe Berg 23,113,226,0-7,21,8-
Warthausen An der Schloßhalde 8,73,89,7-4,52,30,2
Warthausen Schwabenwiesen 9,25,612,7-4,91,4-
Warthausen-Barabein Barabein 207,05,010,0-6,01,5-
Weingarten Laurastraße4,012,014,50,16,00,3-
+ 3,8 ° C um 7.30 Uhr
Weingarten Hoyerstraße-------
Weingarten Marienstraße5,014,014,00,08,00,5-
Wolfegg-Veesers Veesers 1-------
Wolpertswende Aulendorfer Str. 171,813,02,70,45,80,90,4
Regen

Stillgelegte Niederschlagsstationen    -    derzeit 49 Stationen

StationLetzte Meldung13.03.14.03.15.03.16.03.17.03.18.03.19.03.Bemerkung 16.03.
Allmannsweiler Eggatsweilerstr.2802.09.2014-------
Aulendorf-Rugetsweiler Erikaweg 325.07.2013-------
Aulendorf-Zollenreute Imterstraße 1209.02.2019-------
Bad Saulgau Willi-Burth-Straße19.09.2011-------
Bad Saulgau Eichendorffweg28.03.2013-------
Bad Saulgau Seewattenstraße 12815.01.2014-------
Bad Saulgau-Lampertsweiler Valentinstr. 2618.02.2015-------
Bad Schussenried-Steinhausen Drosselgasse 4/126.09.2012-------
Bad Waldsee-Michelwinnanden Michelberg 531.12.2014-------
Bad Waldsee-Osterhofen Hochwaldgasse 406.03.2015-------
Bad Waldsee-Steinach Hofraingasse 1510.11.2013-------
Bad Wurzach-Dietmanns Postweg 519.01.2019-------
Bad Wurzach-Haidgau Wengener Straße 507.10.2012-------
Bad Wurzach-Ziegelbach Ziegelbach-Greut 507.11.2014-------
Bergatreute Bolanden 113.02.2012-------
Betzenweiler Offinger Straße 505.01.2017-------
Burgrieden Am Nonnenberg 328.10.2013-------
Burgrieden-Rot Schmiedgasse 518.09.2013-------
Eberhardzell Schillerstraße05.07.2010-------
Ehingen Am Elzengraben17.06.2016-------
Gammertingen Schillerstraße 2216.01.2016-------
Griesingen Blumenstraße 906.10.2015-------
Günzburg Erlenbadweg 34 1/231.12.2010-------
Hoßkirch Kirchstraße 805.01.2018-------
Ingoldingen-Grodt Ingoldinger Weg 1919.11.2016-------
Kisslegg Kirchmoosstraße02.05.2011-------
Krauchenwies-Hausen Rosenrain 123.11.2013-------
Kressbronn Irisstraße 410.03.2010-------
Leutkirch-Ottmannshofen Spitalriedstraße 527.07.2012-------
Leutkirch-Rotis Rotis 5/208.05.2016-------
Leutkirch-Wuchzenhofen Untere Kirchstraße 18/119.09.2016-------
Mietingen Hangweg 1530.12.2017-------
Mössingen-Bästenhardt Weissdornweg 721.07.2014-------
Ostrach Heiligenberger Straße19.08.2013-------
Pfullendorf Ringstraße 18.03.2012-------
Ravensburg Olgastraße30.10.2016-------
Seltmans Amselweg 2209.04.2013-------
Stuttgart-Bad Cannstatt Beuthener Str. 6703.02.2013-------
Stuttgart-Möhringen Glashütter Weg 1023.04.2017-------
Stuttgart-Rohr Hirschsprung 307.11.2012-------
Talheim Im Schecken 2121.08.2016-------
Tannheim Eggmannstr. 42 22.10.2017-------
Tettnang-Ramsbach Jahnstr. 24/126.03.2011-------
Tuttlingen-Möhringen Belchenstraße01.01.2015-------
Ummendorf Bergstraße23.10.2017-------
Vogt Mühlwies 1822.05.2015-------
Wangen-Atzenberg Keplerweg 324.02.2019-------
Weingarten Bischof-Sproll-Straße30.06.2011-------
Wilhelmsdorf Riedhauser Straße 28.10.2012-------
Wilhelmsdorf Seefeld20.08.2013-------
Wurmlingen An der Steig 3014.10.2016-------
Die Niederschlagswerte des gewählten Tages lassen sich durch Klicken auf das Datum sortieren.
Die Angaben sind in l/m².

Wetterbeobachtungen Legende:

  • Regen
  • Nieselregen
  • Schneeregen
  • Schnee
  • Graupel
  • Eiskörner
  • Hagel
  • Bodennebel
  • Gewitter
  • Nebelnässe
  • Schneegriesel

Grafische Darstellung der Tagesniederschläge vom 16.03.2019

< 15.03.201917.03.2019 >Monats- und Jahresniederschlag


 
wetterstationen
wetterstationen
- derzeit 83 Stationen
niederschlagsdatenbank
wetterstationen
- kartographische Darstellung
niederschlagsdatenbank
niederschlagsstationen
- derzeit 112 Stationen
niederschlagsdatenbank
niederschlagsstationen
- kartographische Darstellung
 
  treffpunkt & service
--- Anzeigen --------------------------------
zugriffe:
insgesamt: 46.623.296
aktueller monat: 485
heute: 485
momentan online: 28
 
 
monatshöchstwert: 653.625
vorheriger monat: 364.213
gestern: 13.565
tageshöchstwert: 57.073
 
wetterwarte süd
 
konradstraße 3
info@wetterwarte-sued.com
roland roth
 
88427 bad schussenried